Location: Bremen
(53.0793°N, 8.8017°E)
Time: 16:26:31
(UTC+01:00)

Transit 2A - Pass Details

Date: 28 November 2022
Orbit: 594 x 962 km, 66.7° (Epoch: 31 January)

Event Time Altitude Azimuth Distance (km) Brightness Sun altitude
Rises 17:01:40 0° 320° (NW) 3,093 9.3 -6.9°
Reaches altitude 10° 17:03:58 10° 325° (NW) 2,225 8.5 -7.2°
Maximum altitude 17:08:57 54° 43° (NE) 952 6.2 -7.9°
Drops below altitude 10° 17:14:30 10° 120° (ESE) 2,461 8.3 -8.7°
Sets 17:17:09 0° 125° (SE) 3,451 9.1 -9.0°
